Other Public Products
Issued by NWS Charleston, SC

Current Version | Previous Version | Graphics & Text | Print | Product List | Glossary On
Versions: 1 2 3 4 5 6 7 8 9 10 11 12 13 14 15 16 17 18 19 20 21 22 23 24 25 26 27 28 29 30 31 32 33 34 35 36 37 38 39 40 41 42 43 44 45 46 47 48 49 50
736
FPUS82 KCHS 140412
OPUCHS

TEST...KCHS/KSAV Gateway Observations...TEST
National Weather Service Charleston SC
1100 PM EST WED DEC 13 2017

NOTE: "fair" indicates few or no clouds below 12,000 feet with no
significant weather and/or obstructions to visibility.

SCZ050-WAZ558-NCZ071-TXZ119-213-PAZ071-DCZ001-FLZ074-172-MI076-
NYZ176-178-MAZ016-IL014-TNZ027-NJZ106-GAZ044-MD014-140500-

...Gateway Observations for Charleston International...

CITY           SKY/WX    TMP DP  RH WIND       PRES   REMARKS
Chas Airport   CLEAR     43  32  65 SW12      29.91S
Seattle        MOCLDY    43  37  79 N13       30.38R
Charlotte      PTCLDY    41  17  38 SW14G23   29.74F
Dallas DFW     CLEAR     53  28  38 SW7       29.88F
Dallas Love    PTCLDY    55  33  43 SW6       29.90S
Philladelphia  LGT SNOW  27  24  89 S8        29.71S VSB 3/4 WCI  19
Wash National  CLOUDY    36  15  42 S15       29.63F WCI  27
Baltimore      CLOUDY    30  21  69 E7        29.63F WCI  23
Miami          CLEAR     55  40  56 CALM      30.10S
Detroit        LGT SNOW  22  18  85 N17       29.45R FOG     WCI   8
Newark         CLOUDY    28   6  39 SW9       29.67F WCI  19
Laguardia      CLOUDY    28   5  37 W15       29.67F WCI  16
J F K          CLOUDY    28   7  41 W15       29.69S WCI  16
Boston Logan   CLOUDY    22   9  57 SW21G29   29.54R WCI   6
Ft. Lauderdale CLEAR     53  43  68 CALM      30.08F
Chicago O`Hare CLOUDY    29  20  69 N22G29    29.69R WCI  15
Chicago Midway FLURRIES  30  22  72 N18G30    29.68R WCI  18
Houston Bush   CLOUDY    45  39  79 CALM      29.98F
Houston Hobby  CLOUDY    49  39  68 S3        29.98F
Nashville      CLEAR     49  22  34 SW9G17    29.77S
Atlanta        PTCLDY    44  21  40 W13       29.86S

$$

GAZ044-118-TXZ119-213-NCZ071-DCZ001-MDZ014-506-PAZ021-071-NJZ106-
NYZ176-178-MAZ106-OHZ011-021-055-MIZ076-KYZ091-ILZ014-INZ047-
MNZ060-ONZ431-140500-

...Gateway Observations for Savannah International...

CITY           SKY/WX    TMP DP  RH WIND       PRES   REMARKS
Savannah Arpt  CLEAR     43  26  51 SW7       29.95S
Atlanta        PTCLDY    44  21  40 W13       29.86S
Charlotte      PTCLDY    41  17  38 SW14G23   29.74F
Dallas DFW     CLEAR     53  28  38 SW7       29.88F
Houston Bush   CLOUDY    45  39  79 CALM      29.98F
Wash National  CLOUDY    36  15  42 S15       29.63F WCI  27
Wash Dulles    CLOUDY    34  12  40 S9        29.60F WCI  27
Baltimore      CLOUDY    30  21  69 E7        29.63F WCI  23
Philadelphia   LGT SNOW  27  24  89 S8        29.71S VSB 3/4 WCI  19
Newark         CLOUDY    28   6  39 SW9       29.67F WCI  19
Laguardia      CLOUDY    28   5  37 W15       29.67F WCI  16
J F K          CLOUDY    28   7  41 W15       29.69S WCI  16
Boston         CLOUDY    22   9  57 SW21G29   29.54R WCI   6
Pittsburg      LGT SNOW  24  21  88 S7        29.41S FOG     WCI  16
Akron          LGT SNOW  23  19  85 S10       29.36F VSB 1   WCI  12
Cleveland      LGT SNOW  24  21  88 SE8       29.38F VSB 1   WCI  15
Cincinnati     CLOUDY    41  30  65 W32G41    29.55R
Columbus       CLOUDY    37  30  75 W30G39    29.44R WCI  25
Detroit        LGT SNOW  22  18  85 N17       29.45R FOG     WCI   8
Chicago O`Hare CLOUDY    29  20  69 N22G29    29.69R WCI  15
Minneapolis    PTCLDY    19  15  84 N8        29.93R WCI   9
Indianapolis   CLOUDY    35  25  66 NW23G37   29.62R WCI  23
Toronto Canada FLURRIES  14   9  79 N12       29.57F WCI   0

$$




USA.gov is the U.S. government's official web portal to all federal, state and local government web resources and services.